TimeBST,TemperatureF,Dew PointF,Humidity,Sea Level PressureIn,VisibilityMPH,Wind Direction,Wind SpeedMPH,Gust SpeedMPH,PrecipitationIn,Events,Conditions,WindDirDegrees,DateUTC
12:50 AM,58,56,92,30.07,3,East,3.5,,,,Light Haze,80,2013-08-26 23:50:00
5:50 AM,51.8,51.8,100,30.06,1.5,North,3.5,-,N/A,,Partly Cloudy,350,2013-08-27 04:50:00
6:20 AM,51.8,50.0,94,30.06,1.2,North,1.2,-,N/A,,Partly Cloudy,10,2013-08-27 05:20:00
6:50 AM,51,50,95,30.08,2,WNW,3.5,,,Fog,Fog,290,2013-08-27 05:50:00
7:20 AM,53.6,51.8,94,30.06,1.8,North,4.6,-,N/A,,Mist,360,2013-08-27 06:20:00
7:50 AM,55.4,55.4,100,30.06,-9999.0,North,3.5,-,N/A,,Clear,360,2013-08-27 06:50:00
8:20 AM,57.2,55.4,94,30.06,-9999.0,NE,2.3,-,N/A,,Clear,40,2013-08-27 07:20:00
8:50 AM,62.6,53.6,72,30.06,-9999.0,North,4.6,-,N/A,,Clear,360,2013-08-27 07:50:00
9:20 AM,66.2,53.6,64,30.06,-9999.0,North,2.3,-,N/A,,Clear,360,2013-08-27 08:20:00
9:50 AM,68,51,45,30.07,9,North,3.5,,,,,10,2013-08-27 08:50:00
9:50 AM,68.0,51.8,56,30.06,-9999.0,North,3.5,-,N/A,,Clear,10,2013-08-27 08:50:00
10:20 AM,71.6,53.6,53,30.06,-9999.0,North,2.3,-,N/A,,Clear,360,2013-08-27 09:20:00
10:50 AM,73.4,51.8,47,30.06,-9999.0,NNW,4.6,-,N/A,,Clear,340,2013-08-27 09:50:00
11:20 AM,73.4,53.6,50,30.06,-9999.0,NW,6.9,-,N/A,,Clear,320,2013-08-27 10:20:00
11:50 AM,71.6,51.8,50,30.06,-9999.0,North,8.1,-,N/A,,Clear,360,2013-08-27 10:50:00
12:50 PM,76,49,28,30.06,11,NE,11.5,,,,Partly Cloudy,40,2013-08-27 11:50:00
12:50 PM,73.4,48.2,41,30.06,6.2,NE,12.7,-,N/A,,Partly Cloudy,40,2013-08-27 11:50:00
1:20 PM,75.2,48.2,38,30.06,-9999.0,NE,11.5,-,N/A,,Clear,40,2013-08-27 12:20:00
1:50 PM,75.2,48.2,38,30.06,-9999.0,North,5.8,-,N/A,,Clear,10,2013-08-27 12:50:00
2:20 PM,75.2,48.2,38,30.06,-9999.0,North,9.2,-,N/A,,Clear,350,2013-08-27 13:20:00
2:50 PM,75,49,29,30.06,11,NE,9.2,,,,Scattered Clouds,40,2013-08-27 13:50:00
2:50 PM,75.2,48.2,38,30.04,-9999.0,NE,9.2,-,N/A,,Clear,40,2013-08-27 13:50:00
3:20 PM,75.2,48.2,38,30.06,-9999.0,NE,11.5,-,N/A,,Clear,40,2013-08-27 14:20:00
3:50 PM,75,49,29,30.06,11,NE,12.7,,,,Mostly Cloudy,50,2013-08-27 14:50:00
3:50 PM,75.2,48.2,38,30.04,-9999.0,NE,11.5,-,N/A,,Clear,50,2013-08-27 14:50:00
4:20 PM,73.4,46.4,38,30.06,-9999.0,North,10.4,-,N/A,,Clear,10,2013-08-27 15:20:00
4:50 PM,74,49,30,30.06,11,NNE,12.7,,,,Partly Cloudy,30,2013-08-27 15:50:00
4:50 PM,75.2,48.2,38,30.04,-9999.0,NNE,11.5,-,N/A,,Clear,20,2013-08-27 15:50:00
5:20 PM,75.2,50.0,41,30.04,-9999.0,North,12.7,-,N/A,,Clear,360,2013-08-27 16:20:00
5:50 PM,74,49,30,30.06,10,NNE,8.1,,,,Scattered Clouds,20,2013-08-27 16:50:00
5:50 PM,73.4,50.0,44,30.06,-9999.0,NNE,8.1,-,N/A,,Clear,30,2013-08-27 16:50:00
6:20 PM,73.4,48.2,41,30.06,-9999.0,NNE,10.4,-,N/A,,Clear,20,2013-08-27 17:20:00
6:50 PM,71,49,34,30.07,11,NNE,10.4,,,,,20,2013-08-27 17:50:00
6:50 PM,71.6,48.2,43,30.06,-9999.0,NNE,9.2,-,N/A,,Clear,30,2013-08-27 17:50:00
7:20 PM,69.8,48.2,46,30.06,-9999.0,North,6.9,-,N/A,,Clear,10,2013-08-27 18:20:00
7:50 PM,68,49,40,30.08,9,North,5.8,,,,,10,2013-08-27 18:50:00
7:50 PM,68.0,48.2,49,30.06,-9999.0,North,5.8,-,N/A,,Clear,10,2013-08-27 18:50:00
8:20 PM,66.2,50.0,56,30.06,-9999.0,North,3.5,-,N/A,,Clear,360,2013-08-27 19:20:00
8:50 PM,60,49,56,30.10,8,NNW,4.6,,,,,340,2013-08-27 19:50:00
8:50 PM,62.6,50.0,63,30.06,-9999.0,North,3.5,-,N/A,,Clear,350,2013-08-27 19:50:00
9:20 PM,60.8,50.0,68,30.09,-9999.0,North,3.5,-,N/A,,Clear,360,2013-08-27 20:20:00
9:50 PM,58,50,67,30.12,7,North,3.5,,,,,350,2013-08-27 20:50:00
9:50 PM,57.2,50.0,77,30.09,-9999.0,North,3.5,-,N/A,,Clear,360,2013-08-27 20:50:00
10:20 PM,55.4,50.0,82,30.12,-9999.0,North,4.6,-,N/A,,Clear,10,2013-08-27 21:20:00
10:50 PM,56,51,76,30.14,7,WNW,1.2,,,,Scattered Clouds,290,2013-08-27 21:50:00
10:50 PM,55.4,50.0,82,30.12,-9999.0,West,1.2,-,N/A,,Clear,280,2013-08-27 21:50:00
11:50 PM,55,51,83,30.15,8,Calm,Calm,,,,,,2013-08-27 22:50:00
11:50 PM,55.4,50.0,82,30.12,-9999.0,Calm,Calm,-,N/A,,Clear,0,2013-08-27 22:50:00